<?xml version="1.0"?>
<gpx xmlns="http://www.topografix.com/GPX/1/1" xmlns:xsi="http://www.w3.org/2001/XMLSchema-instance" version="1.1" creator="GPX RubyGem 1.0.0 -- http://dougfales.github.io/gpx/" xsi:schemaLocation="http://www.topografix.com/GPX/1/1 http://www.topografix.com/GPX/1/1/gpx.xsd">
  <metadata>
    <name/>
    <time>2026-05-08T19:02:05+00:00</time>
    <bound minlat="90.0" minlon="180.0" maxlat="-90.0" maxlon="-180.0"/>
  </metadata>
  <trk>
    <name/>
    <trkseg>
      <trkpt lat="50.604684" lon="10.859394">
        <time>1970-01-01T00:00:00+00:00</time>
        <ele>757.0</ele>
      </trkpt>
      <trkpt lat="50.604453" lon="10.859561">
        <time>1970-01-01T00:00:00+00:00</time>
        <ele>758.0</ele>
      </trkpt>
      <trkpt lat="50.604205" lon="10.859772">
        <time>1970-01-01T00:00:00+00:00</time>
        <ele>758.0</ele>
      </trkpt>
      <trkpt lat="50.603699" lon="10.860074">
        <time>1970-01-01T00:00:00+00:00</time>
        <ele>764.0</ele>
      </trkpt>
      <trkpt lat="50.603304" lon="10.860262">
        <time>1970-01-01T00:00:00+00:00</time>
        <ele>767.0</ele>
      </trkpt>
      <trkpt lat="50.603064" lon="10.860462">
        <time>1970-01-01T00:00:00+00:00</time>
        <ele>763.0</ele>
      </trkpt>
      <trkpt lat="50.602917" lon="10.860661">
        <time>1970-01-01T00:00:00+00:00</time>
        <ele>756.0</ele>
      </trkpt>
      <trkpt lat="50.602858" lon="10.860803">
        <time>1970-01-01T00:00:00+00:00</time>
        <ele>755.0</ele>
      </trkpt>
      <trkpt lat="50.602636" lon="10.860727">
        <time>1970-01-01T00:00:00+00:00</time>
        <ele>758.0</ele>
      </trkpt>
      <trkpt lat="50.602636" lon="10.860727">
        <time>1970-01-01T00:00:00+00:00</time>
        <ele>758.0</ele>
      </trkpt>
      <trkpt lat="50.602858" lon="10.860803">
        <time>1970-01-01T00:00:00+00:00</time>
        <ele>755.0</ele>
      </trkpt>
      <trkpt lat="50.602917" lon="10.860661">
        <time>1970-01-01T00:00:00+00:00</time>
        <ele>756.0</ele>
      </trkpt>
      <trkpt lat="50.603064" lon="10.860462">
        <time>1970-01-01T00:00:00+00:00</time>
        <ele>763.0</ele>
      </trkpt>
      <trkpt lat="50.603304" lon="10.860262">
        <time>1970-01-01T00:00:00+00:00</time>
        <ele>767.0</ele>
      </trkpt>
      <trkpt lat="50.603699" lon="10.860074">
        <time>1970-01-01T00:00:00+00:00</time>
        <ele>764.0</ele>
      </trkpt>
      <trkpt lat="50.604205" lon="10.859772">
        <time>1970-01-01T00:00:00+00:00</time>
        <ele>758.0</ele>
      </trkpt>
      <trkpt lat="50.604453" lon="10.859561">
        <time>1970-01-01T00:00:00+00:00</time>
        <ele>758.0</ele>
      </trkpt>
      <trkpt lat="50.604684" lon="10.859394">
        <time>1970-01-01T00:00:00+00:00</time>
        <ele>757.0</ele>
      </trkpt>
    </trkseg>
  </trk>
</gpx>
